Year,Month,Day,Hour,Minute,Value (Times are PST for temperature in C)
2015,07,27,00,00,11.80
2015,07,27,00,01,11.80
2015,07,27,00,02,11.80
2015,07,27,00,03,11.80
2015,07,27,00,04,11.80
2015,07,27,00,05,11.80
2015,07,27,00,06,11.80
2015,07,27,00,07,11.80
2015,07,27,00,08,11.80
2015,07,27,00,09,11.80
2015,07,27,00,10,11.80
2015,07,27,00,11,11.80
2015,07,27,00,12,11.80
2015,07,27,00,13,11.80
2015,07,27,00,14,11.80
2015,07,27,00,15,11.80
2015,07,27,00,16,11.80
2015,07,27,00,17,11.90
2015,07,27,00,18,11.90
2015,07,27,00,19,11.90
2015,07,27,00,20,11.90
2015,07,27,00,21,11.90
2015,07,27,00,22,11.90
2015,07,27,00,23,11.90
2015,07,27,00,24,11.80
2015,07,27,00,25,11.80
2015,07,27,00,26,11.80
2015,07,27,00,27,11.80
2015,07,27,00,28,11.80
2015,07,27,00,29,11.70
2015,07,27,00,30,11.70
2015,07,27,00,31,11.70
2015,07,27,00,32,11.70
2015,07,27,00,33,11.70
2015,07,27,00,34,11.70
2015,07,27,00,35,11.70
2015,07,27,00,36,11.70
2015,07,27,00,37,11.70
2015,07,27,00,38,11.70
2015,07,27,00,39,11.70
2015,07,27,00,40,11.70
2015,07,27,00,41,11.70
2015,07,27,00,42,11.70
2015,07,27,00,43,11.70
2015,07,27,00,44,11.80
2015,07,27,00,45,11.90
2015,07,27,00,46,11.90
2015,07,27,00,47,11.90
2015,07,27,00,48,11.90
2015,07,27,00,49,11.80
2015,07,27,00,50,11.80
2015,07,27,00,51,11.80
2015,07,27,00,52,11.80
2015,07,27,00,53,11.80
2015,07,27,00,54,11.80
2015,07,27,00,55,11.80
2015,07,27,00,56,11.80
2015,07,27,00,57,11.80
2015,07,27,00,58,11.80
2015,07,27,00,59,11.80
2015,07,27,01,00,11.80
2015,07,27,01,01,11.80
2015,07,27,01,02,11.80
2015,07,27,01,03,11.80
2015,07,27,01,04,11.90
2015,07,27,01,05,11.90
2015,07,27,01,06,11.90
2015,07,27,01,07,11.90
2015,07,27,01,08,11.90
2015,07,27,01,09,11.90
2015,07,27,01,10,11.90
2015,07,27,01,11,11.90
2015,07,27,01,12,11.90
2015,07,27,01,13,11.90
2015,07,27,01,14,11.90
2015,07,27,01,15,11.90
2015,07,27,01,16,11.90
2015,07,27,01,17,11.90
2015,07,27,01,18,11.90
2015,07,27,01,19,11.90
2015,07,27,01,20,11.90
2015,07,27,01,21,11.80
2015,07,27,01,22,11.80
2015,07,27,01,23,11.80
2015,07,27,01,24,11.80
2015,07,27,01,25,11.80
2015,07,27,01,26,11.80
2015,07,27,01,27,11.80
2015,07,27,01,28,11.80
2015,07,27,01,29,11.80
2015,07,27,01,30,11.80
2015,07,27,01,31,11.80
2015,07,27,01,32,11.80
2015,07,27,01,33,11.80
2015,07,27,01,34,11.80
2015,07,27,01,35,11.80
2015,07,27,01,36,11.80
2015,07,27,01,37,11.80
2015,07,27,01,38,11.80
2015,07,27,01,39,11.80
2015,07,27,01,40,11.70
2015,07,27,01,41,11.70
2015,07,27,01,42,11.70
2015,07,27,01,43,11.70
2015,07,27,01,44,11.70
2015,07,27,01,45,11.70
2015,07,27,01,46,11.70
2015,07,27,01,47,11.70
2015,07,27,01,48,11.70
2015,07,27,01,49,11.70
2015,07,27,01,50,11.70
2015,07,27,01,51,11.70
2015,07,27,01,52,11.70
2015,07,27,01,53,11.60
2015,07,27,01,54,11.60
2015,07,27,01,55,11.60
2015,07,27,01,56,11.60
2015,07,27,01,57,11.60
2015,07,27,01,58,11.60
2015,07,27,01,59,11.60
2015,07,27,02,00,11.60
2015,07,27,02,01,11.60
2015,07,27,02,02,11.60
2015,07,27,02,03,11.60
2015,07,27,02,04,11.60
2015,07,27,02,05,11.60
2015,07,27,02,06,11.60
2015,07,27,02,07,11.60
2015,07,27,02,08,11.60
2015,07,27,02,09,11.60
2015,07,27,02,10,11.60
2015,07,27,02,11,11.60
2015,07,27,02,12,11.60
2015,07,27,02,13,11.60
2015,07,27,02,14,11.60
2015,07,27,02,15,11.60
2015,07,27,02,16,11.60
2015,07,27,02,17,11.60
2015,07,27,02,18,11.60
2015,07,27,02,19,11.60
2015,07,27,02,20,11.60
2015,07,27,02,21,11.60
2015,07,27,02,22,11.60
2015,07,27,02,23,11.60
2015,07,27,02,24,11.60
2015,07,27,02,25,11.60
2015,07,27,02,26,11.50
2015,07,27,02,27,11.50
2015,07,27,02,28,11.50
2015,07,27,02,29,11.40
2015,07,27,02,30,11.40
2015,07,27,02,31,11.40
2015,07,27,02,32,11.40
2015,07,27,02,33,11.40
2015,07,27,02,34,11.40
2015,07,27,02,35,11.40
2015,07,27,02,36,11.40
2015,07,27,02,37,11.50
2015,07,27,02,38,11.50
2015,07,27,02,39,11.50
2015,07,27,02,40,11.50
2015,07,27,02,41,11.50
2015,07,27,02,42,11.60
2015,07,27,02,43,11.60
2015,07,27,02,44,11.70
2015,07,27,02,45,11.80
2015,07,27,02,46,11.80
2015,07,27,02,47,11.80
2015,07,27,02,48,11.80
2015,07,27,02,49,11.80
2015,07,27,02,50,11.80
2015,07,27,02,51,11.90
2015,07,27,02,52,11.80
2015,07,27,02,53,11.90
2015,07,27,02,54,11.90
2015,07,27,02,55,11.90
2015,07,27,02,56,11.90
2015,07,27,02,57,11.90
2015,07,27,02,58,11.90
2015,07,27,02,59,11.90
2015,07,27,03,00,11.90
2015,07,27,03,01,11.90
2015,07,27,03,02,11.90
2015,07,27,03,03,11.90
2015,07,27,03,04,11.90
2015,07,27,03,05,11.90
2015,07,27,03,06,11.90
2015,07,27,03,07,11.90
2015,07,27,03,08,11.90
2015,07,27,03,09,11.90
2015,07,27,03,10,11.80
2015,07,27,03,11,11.80
2015,07,27,03,12,11.80
2015,07,27,03,13,11.80
2015,07,27,03,14,11.80
2015,07,27,03,15,11.80
2015,07,27,03,16,11.80
2015,07,27,03,17,11.70
2015,07,27,03,18,11.70
2015,07,27,03,19,11.70
2015,07,27,03,20,11.70
2015,07,27,03,21,11.60
2015,07,27,03,22,11.60
2015,07,27,03,23,11.60
2015,07,27,03,24,11.60
2015,07,27,03,25,11.50
2015,07,27,03,26,11.50
2015,07,27,03,27,11.50
2015,07,27,03,28,11.40
2015,07,27,03,29,11.40
2015,07,27,03,30,11.40
2015,07,27,03,31,11.40
2015,07,27,03,32,11.50
2015,07,27,03,33,11.50
2015,07,27,03,34,11.40
2015,07,27,03,35,11.40
2015,07,27,03,36,11.40
2015,07,27,03,37,11.40
2015,07,27,03,38,11.40
2015,07,27,03,39,11.40
2015,07,27,03,40,11.40
2015,07,27,03,41,11.50
2015,07,27,03,42,11.50
2015,07,27,03,43,11.50
2015,07,27,03,44,11.50
2015,07,27,03,45,11.50
2015,07,27,03,46,11.50
2015,07,27,03,47,11.60
2015,07,27,03,48,11.60
2015,07,27,03,49,11.60
2015,07,27,03,50,11.60
2015,07,27,03,51,11.60
2015,07,27,03,52,11.60
2015,07,27,03,53,11.60
2015,07,27,03,54,11.60
2015,07,27,03,55,11.60
2015,07,27,03,56,11.60
2015,07,27,03,57,11.60
2015,07,27,03,58,11.60
2015,07,27,03,59,11.60
2015,07,27,04,00,11.60
2015,07,27,04,01,11.60
2015,07,27,04,02,11.60
2015,07,27,04,03,11.70
2015,07,27,04,04,11.70
2015,07,27,04,05,11.70
2015,07,27,04,06,11.70
2015,07,27,04,07,11.70
2015,07,27,04,08,11.70
2015,07,27,04,09,11.80
2015,07,27,04,10,11.80
2015,07,27,04,11,11.80
2015,07,27,04,12,11.80
2015,07,27,04,13,11.70
2015,07,27,04,14,11.70
2015,07,27,04,15,11.70
2015,07,27,04,16,11.70
2015,07,27,04,17,11.70
2015,07,27,04,18,11.70
2015,07,27,04,19,11.70
2015,07,27,04,20,11.70
2015,07,27,04,21,11.70
2015,07,27,04,22,11.70
2015,07,27,04,23,11.80
2015,07,27,04,24,11.80
2015,07,27,04,25,11.80
2015,07,27,04,26,11.80
2015,07,27,04,27,11.80
2015,07,27,04,28,11.80
2015,07,27,04,29,11.80
2015,07,27,04,30,11.90
2015,07,27,04,31,11.90
2015,07,27,04,32,12.00
2015,07,27,04,33,12.10
2015,07,27,04,34,12.10
2015,07,27,04,35,12.20
2015,07,27,04,36,12.20
2015,07,27,04,37,12.10
2015,07,27,04,38,12.20
2015,07,27,04,39,12.20
2015,07,27,04,40,12.20
2015,07,27,04,41,12.10
2015,07,27,04,42,12.10
2015,07,27,04,43,12.10
2015,07,27,04,44,12.10
2015,07,27,04,45,12.10
2015,07,27,04,46,12.10
2015,07,27,04,47,12.20
2015,07,27,04,48,12.20
2015,07,27,04,49,12.20
2015,07,27,04,50,12.10
2015,07,27,04,51,12.10
2015,07,27,04,52,12.10
2015,07,27,04,53,12.10
2015,07,27,04,54,12.10
2015,07,27,04,55,12.10
2015,07,27,04,56,12.10
2015,07,27,04,57,12.10
2015,07,27,04,58,12.10
2015,07,27,04,59,12.10
2015,07,27,05,00,12.20
2015,07,27,05,01,12.20
2015,07,27,05,02,12.20
2015,07,27,05,03,12.10
2015,07,27,05,04,12.10
2015,07,27,05,05,12.10
2015,07,27,05,06,12.10
2015,07,27,05,07,12.10
2015,07,27,05,08,12.10
2015,07,27,05,09,12.10
2015,07,27,05,10,12.10
2015,07,27,05,11,12.20
2015,07,27,05,12,12.20
2015,07,27,05,13,12.20
2015,07,27,05,14,12.20
2015,07,27,05,15,12.20
2015,07,27,05,16,12.20
2015,07,27,05,17,12.20
2015,07,27,05,18,12.20
2015,07,27,05,19,12.20
2015,07,27,05,20,12.20
2015,07,27,05,21,12.20
2015,07,27,05,22,12.20
2015,07,27,05,23,12.20
2015,07,27,05,24,12.10
2015,07,27,05,25,12.10
2015,07,27,05,26,12.10
2015,07,27,05,27,12.10
2015,07,27,05,28,12.10
2015,07,27,05,29,12.10
2015,07,27,05,30,12.10
2015,07,27,05,31,12.10
2015,07,27,05,32,12.20
2015,07,27,05,33,12.20
2015,07,27,05,34,12.20
2015,07,27,05,35,12.20
2015,07,27,05,36,12.20
2015,07,27,05,37,12.20
2015,07,27,05,38,12.20
2015,07,27,05,39,12.20
2015,07,27,05,40,12.20
2015,07,27,05,41,12.20
2015,07,27,05,42,12.20
2015,07,27,05,43,12.20
2015,07,27,05,44,12.20
2015,07,27,05,45,12.20
2015,07,27,05,46,12.10
2015,07,27,05,47,12.10
2015,07,27,05,48,12.10
2015,07,27,05,49,12.10
2015,07,27,05,50,12.10
2015,07,27,05,51,12.10
2015,07,27,05,52,12.10
2015,07,27,05,53,12.10
2015,07,27,05,54,12.10
2015,07,27,05,55,12.10
2015,07,27,05,56,12.10
2015,07,27,05,57,12.10
2015,07,27,05,58,12.10
2015,07,27,05,59,12.10
2015,07,27,06,00,12.10
2015,07,27,06,01,12.10
2015,07,27,06,02,12.10
2015,07,27,06,03,12.20
2015,07,27,06,04,12.20
2015,07,27,06,05,12.20
2015,07,27,06,06,12.20
2015,07,27,06,07,12.10
2015,07,27,06,08,12.10
2015,07,27,06,09,12.10
2015,07,27,06,10,12.10
2015,07,27,06,11,12.10
2015,07,27,06,12,12.10
2015,07,27,06,13,12.10
2015,07,27,06,14,12.10
2015,07,27,06,15,12.10
2015,07,27,06,16,12.00
2015,07,27,06,17,12.00
2015,07,27,06,18,12.00
2015,07,27,06,19,12.10
2015,07,27,06,20,12.10
2015,07,27,06,21,12.10
2015,07,27,06,22,12.10
2015,07,27,06,23,12.10
2015,07,27,06,24,12.10
2015,07,27,06,25,12.10
2015,07,27,06,26,12.10
2015,07,27,06,27,12.10
2015,07,27,06,28,12.10
2015,07,27,06,29,12.00
2015,07,27,06,30,12.00
2015,07,27,06,31,12.00
2015,07,27,06,32,12.00
2015,07,27,06,33,12.00
2015,07,27,06,34,11.90
2015,07,27,06,35,11.90
2015,07,27,06,36,11.90
2015,07,27,06,37,11.90
2015,07,27,06,38,11.90
2015,07,27,06,39,11.90
2015,07,27,06,40,11.90
2015,07,27,06,41,11.90
2015,07,27,06,42,11.90
2015,07,27,06,43,11.90
2015,07,27,06,44,11.90
2015,07,27,06,45,11.90
2015,07,27,06,46,11.90
2015,07,27,06,47,11.90
2015,07,27,06,48,11.80
2015,07,27,06,49,11.80
2015,07,27,06,50,11.80
2015,07,27,06,51,11.80
2015,07,27,06,52,11.80
2015,07,27,06,53,11.80
2015,07,27,06,54,11.80
2015,07,27,06,55,11.80
2015,07,27,06,56,11.80
2015,07,27,06,57,11.80
2015,07,27,06,58,11.80
2015,07,27,06,59,11.90
2015,07,27,07,00,11.90
2015,07,27,07,01,11.90
2015,07,27,07,02,11.90
2015,07,27,07,03,11.90
2015,07,27,07,04,11.90
2015,07,27,07,05,12.00
2015,07,27,07,06,12.00
2015,07,27,07,07,12.10
2015,07,27,07,08,12.10
2015,07,27,07,09,12.10
2015,07,27,07,10,12.10
2015,07,27,07,11,12.20
2015,07,27,07,12,12.20
2015,07,27,07,13,12.20
2015,07,27,07,14,12.20
2015,07,27,07,15,12.20
2015,07,27,07,16,12.30
2015,07,27,07,17,12.30
2015,07,27,07,18,12.30
2015,07,27,07,19,12.30
2015,07,27,07,20,12.30
2015,07,27,07,21,12.30
2015,07,27,07,22,12.20
2015,07,27,07,23,12.20
2015,07,27,07,24,12.20
2015,07,27,07,25,12.20
2015,07,27,07,26,12.20
2015,07,27,07,27,12.30
2015,07,27,07,28,12.30
2015,07,27,07,29,12.30
2015,07,27,07,30,12.30
2015,07,27,07,31,12.40
2015,07,27,07,32,12.40
2015,07,27,07,33,12.50
2015,07,27,07,34,12.50
2015,07,27,07,35,12.60
2015,07,27,07,36,12.60
2015,07,27,07,37,12.60
2015,07,27,07,38,12.70
2015,07,27,07,39,12.70
2015,07,27,07,40,12.70
2015,07,27,07,41,12.80
2015,07,27,07,42,12.80
2015,07,27,07,43,12.90
2015,07,27,07,44,12.90
2015,07,27,07,45,12.90
2015,07,27,07,46,13.00
2015,07,27,07,47,13.10
2015,07,27,07,48,13.20
2015,07,27,07,49,13.20
2015,07,27,07,50,13.20
2015,07,27,07,51,13.20
2015,07,27,07,52,13.20
2015,07,27,07,53,13.20
2015,07,27,07,54,13.20
2015,07,27,07,55,13.30
2015,07,27,07,56,13.30
2015,07,27,07,57,13.40
2015,07,27,07,58,13.40
2015,07,27,07,59,13.50
2015,07,27,08,00,13.50
2015,07,27,08,01,13.60
2015,07,27,08,02,13.70
2015,07,27,08,03,13.70
2015,07,27,08,04,13.70
2015,07,27,08,05,13.80
2015,07,27,08,06,13.90
2015,07,27,08,07,13.90
2015,07,27,08,08,14.00
2015,07,27,08,09,13.90
2015,07,27,08,10,14.00
2015,07,27,08,11,14.10
2015,07,27,08,12,14.20
2015,07,27,08,13,14.20
2015,07,27,08,14,14.30
2015,07,27,08,15,14.30
2015,07,27,08,16,14.40
2015,07,27,08,17,14.40
2015,07,27,08,18,14.40
2015,07,27,08,19,14.50
2015,07,27,08,20,14.50
2015,07,27,08,21,14.60
2015,07,27,08,22,14.60
2015,07,27,08,23,14.60
2015,07,27,08,24,14.70
2015,07,27,08,25,14.80
2015,07,27,08,26,14.90
2015,07,27,08,27,15.00
2015,07,27,08,28,15.00
2015,07,27,08,29,15.00
2015,07,27,08,30,15.00
2015,07,27,08,31,15.00
2015,07,27,08,32,15.00
2015,07,27,08,33,15.00
2015,07,27,08,34,15.00
2015,07,27,08,35,15.10
2015,07,27,08,36,15.20
2015,07,27,08,37,15.20
2015,07,27,08,38,15.20
2015,07,27,08,39,15.30
2015,07,27,08,40,15.30
2015,07,27,08,41,15.40
2015,07,27,08,42,15.50
2015,07,27,08,43,15.60
2015,07,27,08,44,15.60
2015,07,27,08,45,15.70
2015,07,27,08,46,15.70
2015,07,27,08,47,15.80
2015,07,27,08,48,15.80
2015,07,27,08,49,15.90
2015,07,27,08,50,15.90
2015,07,27,08,51,16.00
2015,07,27,08,52,16.00
2015,07,27,08,53,16.10
2015,07,27,08,54,16.10
2015,07,27,08,55,16.10
2015,07,27,08,56,16.10
2015,07,27,08,57,16.10
2015,07,27,08,58,16.10
2015,07,27,08,59,16.10
2015,07,27,09,00,16.20
2015,07,27,09,01,16.20
2015,07,27,09,02,16.10
2015,07,27,09,03,16.10
2015,07,27,09,04,16.10
2015,07,27,09,05,16.10
2015,07,27,09,06,16.10
2015,07,27,09,07,16.10
2015,07,27,09,08,16.10
2015,07,27,09,09,16.10
2015,07,27,09,10,16.10
2015,07,27,09,11,16.10
2015,07,27,09,12,16.10
2015,07,27,09,13,16.20
2015,07,27,09,14,16.20
2015,07,27,09,15,16.20
2015,07,27,09,16,16.30
2015,07,27,09,17,16.30
2015,07,27,09,18,16.30
2015,07,27,09,19,16.30
2015,07,27,09,20,16.30
2015,07,27,09,21,16.30
2015,07,27,09,22,16.30
2015,07,27,09,23,16.40
2015,07,27,09,24,16.40
2015,07,27,09,25,16.40
2015,07,27,09,26,16.40
2015,07,27,09,27,16.50
2015,07,27,09,28,16.50
2015,07,27,09,29,16.60
2015,07,27,09,30,16.60
2015,07,27,09,31,16.70
2015,07,27,09,32,16.80
2015,07,27,09,33,16.90
2015,07,27,09,34,16.90
2015,07,27,09,35,16.90
2015,07,27,09,36,16.90
2015,07,27,09,37,16.90
2015,07,27,09,38,17.00
2015,07,27,09,39,17.00
2015,07,27,09,40,17.10
2015,07,27,09,41,17.10
2015,07,27,09,42,17.10
2015,07,27,09,43,17.20
2015,07,27,09,44,17.20
2015,07,27,09,45,17.20
2015,07,27,09,46,17.30
2015,07,27,09,47,17.30
2015,07,27,09,48,17.30
2015,07,27,09,49,17.40
2015,07,27,09,50,17.50
2015,07,27,09,51,17.50
2015,07,27,09,52,17.60
2015,07,27,09,53,17.70
2015,07,27,09,54,17.70
2015,07,27,09,55,17.60
2015,07,27,09,56,17.50
2015,07,27,09,57,17.40
2015,07,27,09,58,17.30
2015,07,27,09,59,17.30
2015,07,27,10,00,17.30
2015,07,27,10,01,17.30
2015,07,27,10,02,17.30
2015,07,27,10,03,17.30
2015,07,27,10,04,17.20
2015,07,27,10,05,17.20
2015,07,27,10,06,17.20
2015,07,27,10,07,17.20
2015,07,27,10,08,17.20
2015,07,27,10,09,17.20
2015,07,27,10,10,17.20
2015,07,27,10,11,17.20
2015,07,27,10,12,17.20
2015,07,27,10,13,17.30
2015,07,27,10,14,17.40
2015,07,27,10,15,17.40
2015,07,27,10,16,17.50
2015,07,27,10,17,17.50
2015,07,27,10,18,17.50
2015,07,27,10,19,17.40
2015,07,27,10,20,17.50
2015,07,27,10,21,17.50
2015,07,27,10,22,17.60
2015,07,27,10,23,17.70
2015,07,27,10,24,17.70
2015,07,27,10,25,17.70
2015,07,27,10,26,17.70
2015,07,27,10,27,17.70
2015,07,27,10,28,17.60
2015,07,27,10,29,17.60
2015,07,27,10,30,17.50
2015,07,27,10,31,17.40
2015,07,27,10,32,17.40
2015,07,27,10,33,17.40
2015,07,27,10,34,17.40
2015,07,27,10,35,17.30
2015,07,27,10,36,17.30
2015,07,27,10,37,17.30
2015,07,27,10,38,17.20
2015,07,27,10,39,17.20
2015,07,27,10,40,17.20
2015,07,27,10,41,17.20
2015,07,27,10,42,17.30
2015,07,27,10,43,17.30
2015,07,27,10,44,17.40
2015,07,27,10,45,17.40
2015,07,27,10,46,17.40
2015,07,27,10,47,17.40
2015,07,27,10,48,17.50
2015,07,27,10,49,17.60
2015,07,27,10,50,17.70
2015,07,27,10,51,17.70
2015,07,27,10,52,17.70
2015,07,27,10,53,17.70
2015,07,27,10,54,17.70
2015,07,27,10,55,17.70
2015,07,27,10,56,17.70
2015,07,27,10,57,17.70
2015,07,27,10,58,17.70
2015,07,27,10,59,17.80
2015,07,27,11,00,17.80
2015,07,27,11,01,17.90
2015,07,27,11,02,17.90
2015,07,27,11,03,17.80
2015,07,27,11,04,17.80
2015,07,27,11,05,17.90
2015,07,27,11,06,17.90
2015,07,27,11,07,18.00
2015,07,27,11,08,18.00
2015,07,27,11,09,18.00
2015,07,27,11,10,18.00
2015,07,27,11,11,18.10
2015,07,27,11,12,18.20
2015,07,27,11,13,18.10
2015,07,27,11,14,18.10
2015,07,27,11,15,18.20
2015,07,27,11,16,18.10
2015,07,27,11,17,18.10
2015,07,27,11,18,18.10
2015,07,27,11,19,18.10
2015,07,27,11,20,18.10
2015,07,27,11,21,18.10
2015,07,27,11,22,18.10
2015,07,27,11,23,18.10
2015,07,27,11,24,18.00
2015,07,27,11,25,18.00
2015,07,27,11,26,18.00
2015,07,27,11,27,18.00
2015,07,27,11,28,18.00
2015,07,27,11,29,18.10
2015,07,27,11,30,18.10
2015,07,27,11,31,18.10
2015,07,27,11,32,18.00
2015,07,27,11,33,18.00
2015,07,27,11,34,17.90
2015,07,27,11,35,17.90
2015,07,27,11,36,17.90
2015,07,27,11,37,18.00
2015,07,27,11,38,18.10
2015,07,27,11,39,18.20
2015,07,27,11,40,18.30
2015,07,27,11,41,18.40
2015,07,27,11,42,18.50
2015,07,27,11,43,18.50
2015,07,27,11,44,18.60
2015,07,27,11,45,18.50
2015,07,27,11,46,18.50
2015,07,27,11,47,18.40
2015,07,27,11,48,18.30
2015,07,27,11,49,18.20
2015,07,27,11,50,18.20
2015,07,27,11,51,18.20
2015,07,27,11,52,18.20
2015,07,27,11,53,18.10
2015,07,27,11,54,18.10
2015,07,27,11,55,18.10
2015,07,27,11,56,18.10
2015,07,27,11,57,18.10
2015,07,27,11,58,18.20
2015,07,27,11,59,18.20
2015,07,27,12,00,18.20
2015,07,27,12,01,18.30
2015,07,27,12,02,18.50
2015,07,27,12,03,18.60
2015,07,27,12,04,18.60
2015,07,27,12,05,18.60
2015,07,27,12,06,18.60
2015,07,27,12,07,18.60
2015,07,27,12,08,18.60
2015,07,27,12,09,18.70
2015,07,27,12,10,18.60
2015,07,27,12,11,18.60
2015,07,27,12,12,18.60
2015,07,27,12,13,18.60
2015,07,27,12,14,18.70
2015,07,27,12,15,18.70
2015,07,27,12,16,18.70
2015,07,27,12,17,18.70
2015,07,27,12,18,18.70
2015,07,27,12,19,18.60
2015,07,27,12,20,18.50
2015,07,27,12,21,18.40
2015,07,27,12,22,18.40
2015,07,27,12,23,18.50
2015,07,27,12,24,18.60
2015,07,27,12,25,18.60
2015,07,27,12,26,18.60
2015,07,27,12,27,18.60
2015,07,27,12,28,18.70
2015,07,27,12,29,18.70
2015,07,27,12,30,18.70
2015,07,27,12,31,18.80
2015,07,27,12,32,18.90
2015,07,27,12,33,18.90
2015,07,27,12,34,18.90
2015,07,27,12,35,18.90
2015,07,27,12,36,18.90
2015,07,27,12,37,19.00
2015,07,27,12,38,19.10
2015,07,27,12,39,19.20
2015,07,27,12,40,19.30
2015,07,27,12,41,19.30
2015,07,27,12,42,19.30
2015,07,27,12,43,19.40
2015,07,27,12,44,19.50
2015,07,27,12,45,19.60
2015,07,27,12,46,19.60
2015,07,27,12,47,19.70
2015,07,27,12,48,19.80
2015,07,27,12,49,19.80
2015,07,27,12,50,19.80
2015,07,27,12,51,19.70
2015,07,27,12,52,19.60
2015,07,27,12,53,19.60
2015,07,27,12,54,19.60
2015,07,27,12,55,19.60
2015,07,27,12,56,19.60
2015,07,27,12,57,19.50
2015,07,27,12,58,19.50
2015,07,27,12,59,19.40
2015,07,27,13,00,19.40
2015,07,27,13,01,19.40
2015,07,27,13,02,19.40
2015,07,27,13,03,19.30
2015,07,27,13,04,19.30
2015,07,27,13,05,19.20
2015,07,27,13,06,19.20
2015,07,27,13,07,19.20
2015,07,27,13,08,19.20
2015,07,27,13,09,19.20
2015,07,27,13,10,19.10
2015,07,27,13,11,19.10
2015,07,27,13,12,19.10
2015,07,27,13,13,19.10
2015,07,27,13,14,19.10
2015,07,27,13,15,19.20
2015,07,27,13,16,19.20
2015,07,27,13,17,19.30
2015,07,27,13,18,19.50
2015,07,27,13,19,19.60
2015,07,27,13,20,19.80
2015,07,27,13,21,19.90
2015,07,27,13,22,19.90
2015,07,27,13,23,19.90
2015,07,27,13,24,19.90
2015,07,27,13,25,19.80
2015,07,27,13,26,19.70
2015,07,27,13,27,19.50
2015,07,27,13,28,19.50
2015,07,27,13,29,19.40
2015,07,27,13,30,19.40
2015,07,27,13,31,19.40
2015,07,27,13,32,19.40
2015,07,27,13,33,19.40
2015,07,27,13,34,19.30
2015,07,27,13,35,19.30
2015,07,27,13,36,19.30
2015,07,27,13,37,19.30
2015,07,27,13,38,19.30
2015,07,27,13,39,19.30
2015,07,27,13,40,19.40
2015,07,27,13,41,19.40
2015,07,27,13,42,19.40
2015,07,27,13,43,19.40
2015,07,27,13,44,19.50
2015,07,27,13,45,19.60
2015,07,27,13,46,19.70
2015,07,27,13,47,19.70
2015,07,27,13,48,19.80
2015,07,27,13,49,19.70
2015,07,27,13,50,19.60
2015,07,27,13,51,19.60
2015,07,27,13,52,19.60
2015,07,27,13,53,19.60
2015,07,27,13,54,19.60
2015,07,27,13,55,19.60
2015,07,27,13,56,19.70
2015,07,27,13,57,19.70
2015,07,27,13,58,19.80
2015,07,27,13,59,19.90
2015,07,27,14,00,20.00
2015,07,27,14,01,20.00
2015,07,27,14,02,20.00
2015,07,27,14,03,20.10
2015,07,27,14,04,20.10
2015,07,27,14,05,20.10
2015,07,27,14,06,20.00
2015,07,27,14,07,19.90
2015,07,27,14,08,19.90
2015,07,27,14,09,19.90
2015,07,27,14,10,20.00
2015,07,27,14,11,19.90
2015,07,27,14,12,19.90
2015,07,27,14,13,19.80
2015,07,27,14,14,19.80
2015,07,27,14,15,19.90
2015,07,27,14,16,19.90
2015,07,27,14,17,19.90
2015,07,27,14,18,19.90
2015,07,27,14,19,19.90
2015,07,27,14,20,19.90
2015,07,27,14,21,19.90
2015,07,27,14,22,20.00
2015,07,27,14,23,20.00
2015,07,27,14,24,20.00
2015,07,27,14,25,20.00
2015,07,27,14,26,20.10
2015,07,27,14,27,20.10
2015,07,27,14,28,20.20
2015,07,27,14,29,20.30
2015,07,27,14,30,20.40
2015,07,27,14,31,20.40
2015,07,27,14,32,20.40
2015,07,27,14,33,20.40
2015,07,27,14,34,20.30
2015,07,27,14,35,20.30
2015,07,27,14,36,20.30
2015,07,27,14,37,20.30
2015,07,27,14,38,20.30
2015,07,27,14,39,20.40
2015,07,27,14,40,20.30
2015,07,27,14,41,20.40
2015,07,27,14,42,20.40
2015,07,27,14,43,20.50
2015,07,27,14,44,20.60
2015,07,27,14,45,20.70
2015,07,27,14,46,20.70
2015,07,27,14,47,20.80
2015,07,27,14,48,20.70
2015,07,27,14,49,20.70
2015,07,27,14,50,20.60
2015,07,27,14,51,20.60
2015,07,27,14,52,20.60
2015,07,27,14,53,20.70
2015,07,27,14,54,20.80
2015,07,27,14,55,20.90
2015,07,27,14,56,20.90
2015,07,27,14,57,21.00
2015,07,27,14,58,21.00
2015,07,27,14,59,21.10
2015,07,27,15,00,21.00
2015,07,27,15,01,21.00
2015,07,27,15,02,21.00
2015,07,27,15,03,21.00
2015,07,27,15,04,21.00
2015,07,27,15,05,21.00
2015,07,27,15,06,20.90
2015,07,27,15,07,20.90
2015,07,27,15,08,20.80
2015,07,27,15,09,20.70
2015,07,27,15,10,20.60
2015,07,27,15,11,20.60
2015,07,27,15,12,20.60
2015,07,27,15,13,20.70
2015,07,27,15,14,20.70
2015,07,27,15,15,20.70
2015,07,27,15,16,20.70
2015,07,27,15,17,20.70
2015,07,27,15,18,20.70
2015,07,27,15,19,20.70
2015,07,27,15,20,20.70
2015,07,27,15,21,20.70
2015,07,27,15,22,20.80
2015,07,27,15,23,20.80
2015,07,27,15,24,20.80
2015,07,27,15,25,20.80
2015,07,27,15,26,20.80
2015,07,27,15,27,20.90
2015,07,27,15,28,20.80
2015,07,27,15,29,20.80
2015,07,27,15,30,20.90
2015,07,27,15,31,20.90
2015,07,27,15,32,20.90
2015,07,27,15,33,20.90
2015,07,27,15,34,21.00
2015,07,27,15,35,21.00
2015,07,27,15,36,21.00
2015,07,27,15,37,21.00
2015,07,27,15,38,21.00
2015,07,27,15,39,21.10
2015,07,27,15,40,21.10
2015,07,27,15,41,21.10
2015,07,27,15,42,21.20
2015,07,27,15,43,21.20
2015,07,27,15,44,21.10
2015,07,27,15,45,21.10
2015,07,27,15,46,21.10
2015,07,27,15,47,21.10
2015,07,27,15,48,21.00
2015,07,27,15,49,21.00
2015,07,27,15,50,20.90
2015,07,27,15,51,21.00
2015,07,27,15,52,21.00
2015,07,27,15,53,21.10
2015,07,27,15,54,21.10
2015,07,27,15,55,21.00
2015,07,27,15,56,21.00
2015,07,27,15,57,21.10
2015,07,27,15,58,21.20
2015,07,27,15,59,21.30
2015,07,27,16,00,21.40
2015,07,27,16,01,21.40
2015,07,27,16,02,21.40
2015,07,27,16,03,21.50
2015,07,27,16,04,21.50
2015,07,27,16,05,21.50
2015,07,27,16,06,21.50
2015,07,27,16,07,21.30
2015,07,27,16,08,21.30
2015,07,27,16,09,21.20
2015,07,27,16,10,21.10
2015,07,27,16,11,21.00
2015,07,27,16,12,20.90
2015,07,27,16,13,20.90
2015,07,27,16,14,20.90
2015,07,27,16,15,21.00
2015,07,27,16,16,21.00
2015,07,27,16,17,20.90
2015,07,27,16,18,20.90
2015,07,27,16,19,20.90
2015,07,27,16,20,20.90
2015,07,27,16,21,20.90
2015,07,27,16,22,20.90
2015,07,27,16,23,21.00
2015,07,27,16,24,21.00
2015,07,27,16,25,21.00
2015,07,27,16,26,21.00
2015,07,27,16,27,21.00
2015,07,27,16,28,21.00
2015,07,27,16,29,21.00
2015,07,27,16,30,21.00
2015,07,27,16,31,21.10
2015,07,27,16,32,21.10
2015,07,27,16,33,21.20
2015,07,27,16,34,21.20
2015,07,27,16,35,21.20
2015,07,27,16,36,21.20
2015,07,27,16,37,21.10
2015,07,27,16,38,21.00
2015,07,27,16,39,21.00
2015,07,27,16,40,20.90
2015,07,27,16,41,20.80
2015,07,27,16,42,20.70
2015,07,27,16,43,20.80
2015,07,27,16,44,20.80
2015,07,27,16,45,20.90
2015,07,27,16,46,20.90
2015,07,27,16,47,21.00
2015,07,27,16,48,21.00
2015,07,27,16,49,21.10
2015,07,27,16,50,21.10
2015,07,27,16,51,21.10
2015,07,27,16,52,21.10
2015,07,27,16,53,21.10
2015,07,27,16,54,21.10
2015,07,27,16,55,21.00
2015,07,27,16,56,21.00
2015,07,27,16,57,20.90
2015,07,27,16,58,20.90
2015,07,27,16,59,20.80
2015,07,27,17,00,20.80
2015,07,27,17,01,20.80
2015,07,27,17,02,20.70
2015,07,27,17,03,20.70
2015,07,27,17,04,20.70
2015,07,27,17,05,20.70
2015,07,27,17,06,20.60
2015,07,27,17,07,20.60
2015,07,27,17,08,20.60
2015,07,27,17,09,20.70
2015,07,27,17,10,20.80
2015,07,27,17,11,20.80
2015,07,27,17,12,20.90
2015,07,27,17,13,21.00
2015,07,27,17,14,21.20
2015,07,27,17,15,21.30
2015,07,27,17,16,21.30
2015,07,27,17,17,21.30
2015,07,27,17,18,21.30
2015,07,27,17,19,21.30